Powrót do katalogu

CZ-6A DEB

AktywnySSO
NORAD 54955·DEBRIS·🇨🇳 China

Wystrzelony Nov 11, 2022 z Taiyuan Satellite Launch Center

Loading…

Następne Przeloty (najbliższe 24 godziny)

TLE

ŚwieżeSource: Space-Track

Epoka: Sep 14, 2026, 13:34 UTC

1 54955U 22151SU  26257.56532868  .00000431  00000-0  13363-3 0  9991
2 54955  98.5555 293.4583 0116271  63.0014 298.2991 14.42414439201686

Śledź CZ-6A DEB w czasie rzeczywistym z AllMySat

Download on the App Store